| time (UTC) | temp C | wind direction | speed KPH | gust KPH | rain 1hr cm | rain 24hr cm | rain mn cm | humidity % | barometer mb |
| 20260507114530 | 7 | 0 | 0.0 | 1.6 | 0.00 | 1.88 | 0.46 | 97 | 1005.2 |
| 20260507113034 | 7 | 0 | 0.0 | 1.6 | 0.00 | 1.88 | 0.46 | 97 | 1004.9 |
| 20260507111531 | 7 | 0 | 0.0 | 0.0 | 0.00 | 1.88 | 0.46 | 97 | 1005.9 |
| 20260507110037 | 7 | 0 | 0.0 | 0.0 | 0.00 | 1.88 | 0.46 | 97 | 1006.1 |
| 20260507104530 | 6 | 0 | 0.0 | 0.0 | 0.00 | 1.88 | 0.46 | 97 | 1005.3 |
| 20260507103030 | 6 | 0 | 0.0 | 0.0 | 0.00 | 1.88 | 0.46 | 97 | 1005.3 |
| 20260507101534 | 6 | 0 | 0.0 | 0.0 | 0.00 | 1.88 | 0.46 | 97 | 1004.4 |
| 20260507100032 | 6 | 0 | 0.0 | 0.0 | 0.00 | 1.88 | 0.46 | 97 | 1004.4 |
| 20260507094535 | 6 | 0 | 0.0 | 4.8 | 0.00 | 1.88 | 0.46 | 97 | 1004.5 |
| 20260507093030 | 6 | 0 | 0.0 | 4.8 | 0.00 | 1.88 | 0.46 | 97 | 1004.6 |
| 20260507091533 | 6 | 0 | 0.0 | 4.8 | 0.00 | 1.88 | 0.46 | 97 | 1004.6 |
| 20260507090029 | 6 | 0 | 0.0 | 6.4 | 0.00 | 1.88 | 0.46 | 98 | 1004.7 |
| 20260507084531 | 6 | 0 | 0.0 | 4.8 | 0.00 | 1.88 | 0.46 | 98 | 1004.3 |
| 20260507083030 | 7 | 0 | 1.6 | 16.1 | 0.00 | 1.88 | 0.46 | 98 | 1004.4 |
| 20260507081537 | 7 | 0 | 0.0 | 8.0 | 0.00 | 1.88 | 0.46 | 98 | 1004.3 |
| 20260507080028 | 7 | 0 | 0.0 | 1.6 | 0.00 | 1.88 | 0.46 | 99 | 1004.2 |
| 20260507074528 | 7 | 0 | 0.0 | 6.4 | 0.00 | 1.88 | 0.46 | 98 | 1004.3 |
| 20260507073031 | 7 | 0 | 0.0 | 4.8 | 0.00 | 1.88 | 0.46 | 99 | 1004.2 |
| 20260507071530 | 7 | 0 | 0.0 | 4.8 | 0.03 | 1.88 | 0.46 | 99 | 1003.7 |
| 20260507070041 | 8 | 0 | 0.0 | 0.0 | 0.03 | 1.88 | 0.46 | 99 | 1003.8 |
| 20260507064530 | 8 | 0 | 0.0 | 6.4 | 0.03 | 1.88 | 0.46 | 99 | 1003.9 |
| 20260507063028 | 8 | 0 | 0.0 | 11.3 | 0.10 | 1.88 | 0.46 | 99 | 1003.5 |
| 20260507061528 | 8 | 0 | 0.0 | 3.2 | 0.20 | 1.85 | 0.43 | 99 | 1003.4 |
| 20260507060028 | 8 | 0 | 0.0 | 4.8 | 0.38 | 1.85 | 0.43 | 99 | 1003.4 |
| 20260507054528 | 8 | 283 | 0.0 | 11.3 | 0.38 | 1.85 | 0.43 | 98 | 1003.1 |
| 20260507053028 | 8 | 0 | 0.0 | 14.5 | 0.33 | 1.78 | 0.36 | 98 | 1003.6 |
| 20260507051527 | 10 | 0 | 4.8 | 16.1 | 0.20 | 1.65 | 0.23 | 99 | 1004.1 |
| 20260507050032 | 10 | 0 | 3.2 | 16.1 | 0.05 | 1.47 | 0.05 | 99 | 1003.0 |
| 20260507044528 | 10 | 0 | 0.0 | 1.6 | 0.08 | 1.47 | 0.05 | 99 | 1002.8 |
| 20260507043030 | 10 | 0 | 0.0 | 8.0 | 0.05 | 1.45 | 0.03 | 99 | 1002.8 |
| 20260507041530 | 10 | 0 | 0.0 | 0.0 | 0.05 | 1.45 | 0.03 | 99 | 1002.8 |
| 20260507040033 | 10 | 0 | 0.0 | 6.4 | 0.03 | 1.42 | 0.00 | 99 | 1002.9 |
| 20260507034530 | 10 | 0 | 1.6 | 9.7 | 0.00 | 1.40 | 1.40 | 98 | 1002.7 |
| 20260507033037 | 10 | 0 | 0.0 | 9.7 | 0.00 | 1.40 | 1.40 | 98 | 1002.7 |
| 20260507031545 | 10 | 0 | 0.0 | 20.9 | 0.00 | 1.40 | 1.40 | 98 | 1002.6 |
| 20260507030031 | 10 | 0 | 0.0 | 16.1 | 0.03 | 1.40 | 1.40 | 98 | 1002.8 |
| 20260507024527 | 11 | 0 | 3.2 | 20.9 | 0.03 | 1.40 | 1.40 | 98 | 1003.1 |
| 20260507023029 | 11 | 0 | 0.0 | 24.1 | 0.05 | 1.40 | 1.40 | 98 | 1003.2 |
| 20260507021533 | 11 | 0 | 1.6 | 12.9 | 0.08 | 1.40 | 1.40 | 98 | 1003.6 |
| 20260507020028 | 11 | 0 | 0.0 | 9.7 | 0.08 | 1.37 | 1.37 | 98 | 1003.7 |
| 20260507014540 | 11 | 0 | 0.0 | 16.1 | 0.08 | 1.37 | 1.37 | 98 | 1003.9 |
| 20260507013035 | 11 | 0 | 0.0 | 8.0 | 0.05 | 1.32 | 1.32 | 98 | 1004.1 |
| 20260507011533 | 11 | 0 | 0.0 | 12.9 | 0.03 | 1.32 | 1.32 | 98 | 1004.4 |
| 20260507010035 | 11 | 229 | 1.6 | 12.9 | 0.00 | 1.30 | 1.30 | 98 | 1004.7 |
| 20260507004528 | 12 | 0 | 0.0 | 9.7 | 0.03 | 1.30 | 1.30 | 98 | 1004.7 |
| 20260507003028 | 12 | 0 | 0.0 | 14.5 | 0.03 | 1.30 | 1.30 | 98 | 1004.8 |
| 20260507001534 | 12 | 0 | 3.2 | 22.5 | 0.08 | 1.30 | 1.30 | 98 | 1005.0 |
| 20260507000027 | 12 | 227 | 0.0 | 14.5 | 0.10 | 1.30 | 1.30 | 98 | 1005.0 |
| 20260506234530 | 12 | 0 | 0.0 | 16.1 | 0.13 | 1.27 | 1.27 | 98 | 1005.2 |
| 20260506233030 | 12 | 0 | 1.6 | 17.7 | 0.25 | 1.27 | 1.27 | 98 | 1005.2 |
| 20260506231527 | 12 | 211 | 1.6 | 17.7 | 0.48 | 1.22 | 1.22 | 97 | 1005.3 |
| 20260506230027 | 12 | 0 | 0.0 | 16.1 | 0.56 | 1.19 | 1.19 | 97 | 1005.4 |
| 20260506224528 | 12 | 0 | 0.0 | 17.7 | 0.64 | 1.14 | 1.14 | 97 | 1005.1 |
| 20260506223028 | 12 | 0 | 0.0 | 9.7 | 0.58 | 0.99 | 0.99 | 97 | 1005.3 |
| 20260506221527 | 12 | 0 | 0.0 | 20.9 | 0.38 | 0.74 | 0.74 | 97 | 1005.6 |
| 20260506220028 | 12 | 0 | 1.6 | 16.1 | 0.33 | 0.61 | 0.61 | 97 | 1005.9 |
| 20260506214530 | 12 | 0 | 1.6 | 19.3 | 0.30 | 0.51 | 0.51 | 97 | 1006.0 |
| 20260506213032 | 12 | 0 | 1.6 | 22.5 | 0.23 | 0.41 | 0.41 | 96 | 1006.1 |
| 20260506211530 | 11 | 247 | 0.0 | 12.9 | 0.25 | 0.33 | 0.33 | 96 | 1006.2 |
| 20260506210032 | 11 | 0 | 0.0 | 11.3 | 0.25 | 0.28 | 0.28 | 95 | 1006.7 |
| 20260506204530 | 12 | 187 | 0.0 | 12.9 | 0.20 | 0.20 | 0.20 | 95 | 1006.8 |
| 20260506203036 | 12 | 218 | 1.6 | 11.3 | 0.15 | 0.15 | 0.15 | 93 | 1006.5 |
| 20260506201535 | 12 | 189 | 1.6 | 11.3 | 0.08 | 0.08 | 0.08 | 92 | 1006.7 |
| 20260506200035 | 13 | 208 | 4.8 | 17.7 | 0.03 | 0.03 | 0.03 | 89 | 1006.5 |
| 20260506194531 | 13 | 197 | 1.6 | 29.0 | 0.00 | 0.00 | 0.00 | 86 | 1006.6 |
| 20260506193030 | 14 | 204 | 3.2 | 16.1 | 0.00 | 0.00 | 0.00 | 84 | 1006.6 |
| 20260506191528 | 15 | 0 | 0.0 | 16.1 | 0.00 | 0.00 | 0.00 | 80 | 1006.8 |
| 20260506190031 | 16 | 196 | 4.8 | 19.3 | 0.00 | 0.00 | 0.00 | 76 | 1006.8 |
| 20260506184535 | 16 | 123 | 3.2 | 16.1 | 0.00 | 0.00 | 0.00 | 76 | 1006.7 |
| 20260506183028 | 15 | 227 | 3.2 | 14.5 | 0.00 | 0.00 | 0.00 | 79 | 1006.8 |
| 20260506181530 | 15 | 196 | 1.6 | 16.1 | 0.00 | 0.00 | 0.00 | 80 | 1007.3 |
| 20260506180030 | 15 | 0 | 1.6 | 16.1 | 0.00 | 0.00 | 0.00 | 80 | 1007.4 |
| 20260506174529 | 15 | 0 | 4.8 | 19.3 | 0.00 | 0.00 | 0.00 | 79 | 1007.4 |
| 20260506173032 | 15 | 0 | 1.6 | 20.9 | 0.00 | 0.00 | 0.00 | 79 | 1007.7 |
| 20260506171529 | 15 | 0 | 3.2 | 14.5 | 0.00 | 0.00 | 0.00 | 79 | 1008.0 |
| 20260506170029 | 15 | 201 | 0.0 | 9.7 | 0.00 | 0.00 | 0.00 | 80 | 1008.2 |
| 20260506164528 | 16 | 240 | 4.8 | 14.5 | 0.00 | 0.00 | 0.00 | 79 | 1008.2 |
| 20260506163034 | 15 | 202 | 0.0 | 17.7 | 0.00 | 0.00 | 0.00 | 80 | 1008.3 |
| 20260506161528 | 15 | 0 | 1.6 | 12.9 | 0.00 | 0.00 | 0.00 | 79 | 1008.8 |
| 20260506160028 | 16 | 198 | 3.2 | 17.7 | 0.00 | 0.00 | 0.00 | 78 | 1008.9 |
| 20260506154532 | 16 | 0 | 1.6 | 12.9 | 0.00 | 0.00 | 0.00 | 77 | 1009.0 |
| 20260506153029 | 17 | 0 | 1.6 | 9.7 | 0.00 | 0.00 | 0.00 | 75 | 1008.7 |
| 20260506151529 | 17 | 0 | 0.0 | 12.9 | 0.00 | 0.00 | 0.00 | 77 | 1008.2 |
| 20260506150030 | 16 | 177 | 1.6 | 11.3 | 0.00 | 0.00 | 0.00 | 76 | 1008.4 |
| 20260506144534 | 16 | 0 | 0.0 | 14.5 | 0.00 | 0.00 | 0.00 | 78 | 1008.7 |
| 20260506143032 | 16 | 204 | 0.0 | 14.5 | 0.00 | 0.00 | 0.00 | 79 | 1009.1 |
| 20260506141531 | 15 | 0 | 1.6 | 11.3 | 0.00 | 0.00 | 0.00 | 80 | 1009.4 |
| 20260506140028 | 16 | 193 | 1.6 | 9.7 | 0.00 | 0.00 | 0.00 | 76 | 1009.2 |
| 20260506134528 | 16 | 173 | 0.0 | 6.4 | 0.00 | 0.00 | 0.00 | 75 | 1008.9 |
| 20260506133028 | 16 | 0 | 0.0 | 6.4 | 0.00 | 0.00 | 0.00 | 76 | 1008.9 |
| 20260506131532 | 16 | 202 | 0.0 | 9.7 | 0.00 | 0.00 | 0.00 | 78 | 1009.0 |
| 20260506130028 | 15 | 0 | 0.0 | 3.2 | 0.00 | 0.00 | 0.00 | 81 | 1009.0 |
| 20260506124529 | 14 | 0 | 0.0 | 0.0 | 0.00 | 0.00 | 0.00 | 83 | 1009.0 |
| 20260506123027 | 13 | 0 | 0.0 | 6.4 | 0.00 | 0.00 | 0.00 | 84 | 1009.1 |
| 20260506121530 | 13 | 224 | 1.6 | 8.0 | 0.00 | 0.00 | 0.00 | 83 | 1009.5 |
| 20260506120033 | 13 | 0 | 0.0 | 0.0 | 0.00 | 0.00 | 0.00 | 84 | 1009.7 |